Lapse_Rate
9.0 8.9 8.9 8.9 9.0 9.0 8.9 8.8 8.4 8.4 8.1 8.0 8.0 8.6 7.9 7.6 7.6 7.3 7.4 7.2 6.7 6.5 6.3 6.0 5.8 5.7 6.0 6.2 6.2 6.2 6.4 6.5 6.6 6.6 6.7 6.7 6.7 6.7 6.6 6.6 6.7 6.6 6.5 6.3
8.6 8.6 8.6 8.6 8.6 8.6 8.5 8.6 8.4 7.9 8.3 8.1 8.0 8.0 8.2 8.4 7.7 7.4 7.0 6.9 6.6 6.5 6.0 5.7 5.5 5.5 5.9 6.0 6.1 6.2 6.4 6.6 6.6 6.6 6.7 6.6 6.6 6.7 6.7 6.7 6.8 6.8 6.7 6.7
8.4 8.6 8.4 8.3 8.5 8.6 8.5 8.5 8.4 8.2 8.2 8.0 8.1 8.4 8.4 8.2 8.0 7.5 7.0 6.6 6.6 6.3 5.8 5.6 5.6 5.6 5.9 6.0 6.1 6.2 6.4 6.5 6.6 6.5 6.5 6.6 6.6 6.7 6.8 6.8 6.7 6.7 6.7 6.7
8.5 8.2 7.3 8.5 8.5 8.6 8.7 8.8 8.7 8.5 8.3 8.1 8.3 8.1 8.0 7.9 7.7 7.5 7.1 6.7 6.4 6.1 5.9 5.7 5.5 5.8 6.1 6.1 6.3 6.5 6.5 6.5 6.6 6.6 6.6 6.7 6.7 6.7 6.7 6.8 6.7 6.7 6.5 6.5
8.5 8.0 8.2 8.4 8.5 8.6 8.8 8.8 8.7 8.6 8.5 8.5 8.6 8.5 8.1 7.9 7.6 7.2 7.0 6.6 6.3 6.1 5.9 5.6 5.7 5.9 5.9 6.0 6.1 6.3 6.3 6.4 6.5 6.5 6.6 6.6 6.6 6.7 6.7 6.7 6.6 6.6 6.6 6.5
7.9 8.1 7.5 8.2 8.3 8.5 8.6 8.3 8.8 8.5 8.4 8.5 8.4 8.4 8.2 7.9 7.5 7.1 6.7 6.3 6.0 5.7 5.6 5.7 5.9 5.9 6.0 6.1 6.1 6.1 6.2 6.4 6.5 6.6 6.6 6.6 6.6 6.7 6.7 6.7 6.5 6.4 6.3 6.2
8.2 7.9 7.9 8.3 8.4 8.6 8.3 8.7 8.5 8.5 8.6 8.5 8.5 8.3 7.9 7.6 7.4 6.9 6.5 6.2 5.8 5.7 5.8 6.0 6.1 6.2 6.2 6.2 6.2 6.2 6.3 6.5 6.6 6.6 6.7 6.7 6.6 6.7 6.9 6.6 6.2 6.1 6.0 5.9
7.9 7.9 8.0 8.4 8.5 8.5 8.4 8.4 8.2 8.4 8.6 8.6 8.4 8.0 7.8 7.3 7.0 6.6 6.1 5.9 5.9 6.0 6.0 6.0 6.2 6.3 6.2 6.1 6.1 6.2 6.4 6.5 6.5 6.5 6.5 6.5 6.5 6.6 6.6 6.4 6.1 5.8 5.7 5.5
8.5 8.6 8.7 8.5 8.3 8.2 8.0 7.9 7.9 8.1 8.1 7.9 7.6 7.4 7.2 6.9 6.6 6.3 6.2 6.1 6.0 6.1 6.0 6.1 6.2 6.2 6.1 6.1 6.1 6.3 6.3 6.3 6.3 6.3 6.4 6.4 6.5 6.6 6.2 5.9 5.7 5.5 5.5 5.4
8.6 8.7 8.5 8.4 8.3 8.1 8.0 7.8 7.5 7.4 7.0 6.7 6.7 6.6 6.6 6.5 6.4 6.3 6.2 6.0 6.0 6.0 6.0 6.0 6.1 6.1 6.0 6.1 6.1 6.2 6.2 6.2 6.2 6.2 6.2 6.3 6.4 6.5 6.4 6.0 5.7 5.4 5.3 5.4
8.4 8.3 8.2 8.2 8.1 7.8 7.7 7.5 7.0 6.7 6.6 6.5 6.4 6.4 6.4 6.3 6.1 6.2 6.0 5.8 5.8 5.9 5.9 6.1 6.1 6.1 6.0 6.0 6.1 6.2 6.2 6.2 6.2 6.3 6.2 6.1 6.2 6.3 6.3 6.2 6.0 5.9 5.8 5.8
8.1 8.2 8.0 7.9 7.8 7.7 7.5 7.2 6.7 6.4 6.2 6.1 5.9 6.1 6.2 6.0 6.0 5.9 5.8 5.8 5.8 5.9 5.9 5.9 6.0 5.9 6.0 6.0 6.1 6.1 6.1 6.1 6.1 6.0 6.0 6.1 6.1 6.0 6.2 6.3 6.0 5.9 6.0 5.8
7.9 7.8 7.7 7.7 7.5 7.3 7.0 6.9 6.5 6.2 6.1 5.9 6.0 6.0 6.0 6.0 5.9 5.8 5.8 5.7 5.6 5.6 5.7 5.8 5.9 5.9 5.9 5.9 6.0 6.0 6.0 5.9 6.0 6.0 6.1 6.2 6.4 6.6 6.5 6.3 6.3 6.0 6.0 6.1
7.8 7.7 7.5 7.5 7.3 6.8 6.6 6.5 6.3 6.1 5.8 5.6 5.5 5.6 5.7 5.6 5.4 5.4 5.3 5.3 5.4 5.6 5.7 5.7 5.8 5.9 5.8 5.8 5.9 5.9 5.9 5.9 6.0 6.1 6.2 6.5 6.6 6.7 6.7 6.7 6.4 6.1 6.1 6.1
7.3 7.2 7.0 6.9 6.9 6.7 6.6 6.3 5.9 5.6 5.5 5.4 5.4 5.4 5.3 5.1 5.1 5.1 5.1 5.2 5.3 5.5 5.6 5.6 5.7 5.8 5.8 5.8 5.8 5.8 5.9 5.9 6.1 6.3 6.5 6.6 6.6 6.6 6.7 6.6 6.5 6.2 6.0 5.9
6.9 6.8 6.8 6.6 6.6 6.5 6.4 5.9 5.7 5.5 5.2 5.1 5.1 4.9 4.8 4.9 4.9 4.9 5.0 5.0 5.0 5.2 5.5 5.6 5.7 5.8 5.8 5.8 5.7 5.8 5.8 6.0 6.3 6.5 6.5 6.5 6.5 6.5 6.5 6.4 6.2 6.1 6.0 5.7
6.6 6.6 6.5 6.4 6.4 6.3 6.1 5.7 5.4 5.2 4.9 4.8 4.8 4.6 4.8 4.7 4.7 4.6 4.6 4.6 4.8 5.1 5.5 5.6 5.7 5.8 5.9 5.8 5.8 5.8 5.9 6.2 6.4 6.6 6.6 6.5 6.5 6.4 6.4 6.4 6.3 6.2 6.1 6.1
6.5 6.3 6.4 6.4 6.4 6.2 5.7 5.5 5.2 4.9 4.7 4.6 4.6 4.7 4.7 4.6 4.4 4.5 4.6 4.7 4.8 4.9 5.2 5.4 5.5 5.6 5.8 5.8 5.8 5.8 6.0 6.2 6.3 6.5 6.5 6.4 6.4 6.4 6.5 6.5 6.3 6.2 6.1 6.3
6.4 6.3 6.2 6.4 6.4 6.0 5.5 5.3 5.1 5.0 4.8 4.7 4.7 4.7 4.5 4.7 4.5 4.5 4.6 4.7 4.6 4.8 4.9 5.1 5.2 5.4 5.7 5.9 5.9 6.0 6.3 6.3 6.4 6.5 6.4 6.5 6.4 6.4 6.4 6.3 6.2 6.2 6.1 6.0
6.4 6.2 6.3 6.3 5.8 5.5 5.4 5.3 5.0 4.9 4.7 4.9 4.5 4.8 4.6 4.6 4.6 4.6 4.6 4.7 4.6 4.7 4.8 4.8 4.9 5.1 5.5 5.9 6.1 6.3 6.3 6.3 6.4 6.5 6.4 6.4 6.4 6.4 6.4 6.3 6.2 6.2 6.1 6.1
6.4 6.4 6.5 6.1 5.7 5.4 5.2 5.2 5.0 4.8 4.7 4.7 4.5 4.3 4.4 4.5 4.5 4.6 4.7 4.8 4.5 4.6 4.7 4.9 4.9 5.0 5.4 5.5 5.6 6.1 6.1 6.0 6.2 6.4 6.5 6.3 6.3 6.3 6.2 6.1 6.2 6.1 6.2 6.1
6.2 6.2 6.4 6.4 6.0 5.3 5.0 5.0 5.0 4.8 4.7 4.6 4.4 4.2 4.4 4.5 4.2 4.5 4.7 4.9 4.8 4.5 4.5 4.8 5.1 5.4 5.2 4.8 5.0 5.3 5.6 5.9 6.0 6.1 6.3 6.4 6.2 6.2 6.1 6.2 6.3 6.3 6.3 6.4
5.9 6.1 6.0 6.0 5.9 5.7 5.3 4.8 4.6 4.5 4.7 4.5 4.7 4.7 4.3 4.5 4.4 4.4 4.8 4.7 4.7 4.8 4.7 4.9 5.2 5.4 5.5 5.4 5.2 5.0 5.4 5.9 6.1 6.0 6.2 6.4 6.3 6.0 6.0 6.1 6.3 6.3 6.4 6.5
6.0 5.8 5.8 5.7 5.5 5.3 5.2 5.0 4.8 4.6 4.6 4.8 4.8 4.7 4.6 4.8 4.7 4.8 4.8 5.0 5.0 5.0 5.0 5.3 5.5 5.7 5.6 5.8 5.7 5.3 5.5 5.7 5.8 6.1 6.2 6.4 6.3 6.1 5.9 6.0 6.2 6.2 6.4 6.5
5.7 5.5 5.3 5.2 5.2 4.8 4.7 4.7 4.9 4.9 5.1 5.1 5.0 4.9 4.8 4.6 4.8 5.0 4.9 4.9 5.1 4.8 4.9 5.2 5.6 5.6 5.6 5.9 5.7 5.6 5.8 6.1 5.9 5.9 6.0 6.3 6.4 6.1 6.0 6.1 6.2 6.3 6.4 6.4
5.4 5.3 5.2 5.1 5.0 4.7 4.6 4.7 5.0 5.1 5.1 5.2 5.2 5.0 5.1 5.0 5.1 5.2 5.0 5.0 4.8 4.9 4.9 5.4 5.5 5.5 5.6 5.7 5.9 5.9 6.1 6.1 5.8 6.0 5.8 6.0 6.0 5.8 5.8 5.9 6.1 6.2 6.2 6.1
5.2 4.9 4.8 5.0 4.9 4.9 5.0 5.0 5.1 5.2 5.1 5.3 5.5 5.5 5.4 5.4 5.3 5.4 5.4 5.4 5.4 5.3 5.3 5.5 5.7 6.0 5.9 5.8 5.8 5.7 5.9 5.7 5.5 5.8 5.6 5.6 5.7 5.8 5.7 5.8 6.0 6.2 6.2 6.2
Wind_Speed
5 3 1 3 5 6 3 3 5 3 7 9 15 13 15 11 10 10 8 7 6 6 5 4 3 3 4 4 4 4 4 4 5 5 5 6 7 8 8 7 7 7 7 8
5 6 7 3 1 6 2 2 6 3 7 6 9 7 8 11 13 11 8 7 6 6 6 5 4 4 3 3 4 3 3 3 3 4 4 5 5 7 7 8 8 8 7 7
3 3 4 4 6 7 4 4 5 5 5 4 5 13 16 14 15 14 11 7 7 6 6 5 4 4 2 1 1 2 2 3 3 4 5 5 5 6 7 8 8 8 9 8
3 3 2 6 4 6 6 3 8 3 3 5 3 2 5 8 14 11 10 9 7 5 5 4 2 4 3 4 3 4 4 5 6 7 7 6 5 5 7 6 9 9 9 9
5 4 4 2 3 5 6 8 7 7 5 3 5 4 4 3 4 8 7 7 6 5 4 4 4 2 3 4 5 5 6 7 7 7 8 8 9 12 7 7 10 9 10 11
3 4 4 7 2 2 4 6 5 8 9 11 7 4 4 7 7 8 8 6 8 6 4 5 2 1 4 4 4 5 7 7 7 7 7 8 8 9 9 8 9 8 9 9
2 2 6 5 1 5 5 7 0 6 7 7 4 4 7 10 6 6 7 9 7 6 5 4 3 3 4 2 3 5 5 6 6 7 7 7 8 7 8 9 8 9 9 8
3 3 4 1 3 6 5 1 3 5 5 6 6 9 10 10 11 10 10 8 5 5 4 4 3 3 3 3 4 4 5 6 7 7 6 6 8 8 9 9 8 9 9 8
6 5 3 3 3 1 4 4 3 6 6 10 12 7 8 8 10 9 9 6 4 5 5 3 2 2 1 4 3 4 5 6 6 7 6 6 7 8 6 7 6 7 7 7
3 2 4 4 2 0 3 5 6 6 10 8 9 8 7 7 7 7 6 6 4 5 4 3 1 1 1 3 4 4 5 6 6 6 7 6 5 6 4 5 5 5 6 6
2 4 2 2 2 2 5 7 11 7 4 7 10 6 6 6 7 6 6 4 4 5 4 3 2 1 2 3 4 4 4 4 6 6 6 6 5 4 3 2 3 4 4 5
5 7 5 4 6 5 6 7 8 8 5 4 6 10 6 6 6 6 6 5 4 4 4 3 2 1 3 3 3 5 5 4 4 4 5 5 5 5 3 7 2 5 5 3
3 2 1 4 7 5 6 7 6 8 8 9 5 7 7 5 5 5 5 5 5 5 4 2 2 3 3 2 3 3 3 4 4 4 3 4 4 4 5 2 7 8 8 9
5 6 4 2 5 7 7 6 6 6 5 6 7 5 5 5 4 6 7 7 5 5 5 4 3 5 4 3 2 2 2 4 2 3 3 3 4 4 3 4 5 5 5 7
0 3 3 7 8 7 5 6 7 7 6 6 5 7 7 8 7 7 6 5 4 5 4 4 4 6 4 4 4 3 3 2 2 2 2 2 3 4 4 4 4 5 4 5
5 6 6 7 9 8 7 7 7 6 6 6 7 7 8 7 6 6 5 5 5 5 7 6 6 6 5 4 5 4 4 7 4 2 2 3 3 3 3 4 4 5 4 5
5 3 3 2 6 7 10 9 8 9 6 7 9 7 7 6 4 5 6 6 7 6 6 6 8 5 5 5 5 4 4 4 5 2 2 2 2 2 2 3 3 4 4 4
2 2 4 3 8 7 5 8 6 6 7 8 5 6 7 8 10 9 8 7 6 6 7 8 7 6 5 5 5 4 4 4 4 4 3 3 3 2 3 3 3 4 4 4
8 5 4 7 8 9 8 8 9 8 3 2 6 9 10 9 8 8 6 6 6 6 11 7 12 11 7 8 7 4 5 5 5 5 5 4 4 4 4 4 3 3 4 4
8 7 5 2 3 4 3 3 6 2 5 8 8 6 8 9 8 7 6 10 11 8 8 5 6 8 9 8 10 5 5 5 6 6 5 5 5 5 5 6 6 4 4 4
7 7 8 7 6 5 5 3 4 7 7 7 8 10 11 10 7 6 5 6 13 11 12 10 6 6 5 8 7 5 6 5 6 6 6 6 6 6 6 6 6 6 5 5
4 5 7 7 6 5 4 2 2 2 3 4 6 5 5 7 6 6 8 9 9 8 6 7 7 12 9 14 6 7 6 7 6 5 6 6 5 6 6 6 7 7 6 6
2 2 3 3 3 4 6 5 4 3 5 5 6 6 7 8 4 5 7 10 10 11 7 7 11 16 17 9 8 8 8 8 7 6 6 5 5 6 6 6 6 6 7 7
3 3 3 4 4 3 5 3 4 5 5 6 6 6 5 5 5 7 8 5 8 10 9 10 11 16 15 7 8 9 9 8 7 7 6 7 5 5 6 6 6 6 6 7
5 5 3 5 5 5 6 5 5 6 5 6 6 5 5 4 6 6 4 6 12 10 8 12 15 16 7 7 8 9 9 8 8 7 7 6 6 6 7 6 6 7 6 6
4 4 4 6 5 5 4 3 4 5 3 5 6 5 5 4 5 6 6 8 7 7 7 7 6 5 6 8 9 10 10 9 9 8 8 7 7 6 7 7 7 6 7 7
3 2 4 5 3 4 4 4 4 7 4 5 6 7 6 5 5 6 6 6 6 7 7 8 6 7 7 7 8 8 8 8 9 8 7 7 7 7 7 7 7 7 6 6
Wind_Direction
26 38 69 152 173 182 162 140 161 247 209 200 194 191 184 168 153 157 167 168 161 161 146 167 141 100 69 43 29 31 29 28 11 351 344 338 338 334 328 326 325 317 317 322
34 11 30 20 62 192 232 157 289 221 268 208 193 130 156 163 163 167 178 182 173 155 158 160 143 117 90 33 13 25 48 17 344 337 329 320 316 319 316 318 318 317 316 312
167 10 7 333 222 193 203 183 167 216 246 158 141 177 184 174 175 175 178 168 164 158 153 145 123 113 95 97 87 41 10 343 339 322 310 304 307 319 326 321 311 308 308 308
142 85 187 235 254 206 184 226 206 188 191 199 156 86 148 177 170 167 153 151 156 147 135 119 80 45 30 19 24 19 359 344 349 342 331 322 326 319 314 319 320 311 305 303
143 198 266 71 195 150 160 267 194 180 140 115 113 78 29 118 125 154 138 146 143 138 135 116 80 25 35 24 10 7 358 347 342 335 335 339 337 338 323 316 318 313 308 304
157 132 189 233 248 172 117 294 202 160 159 152 146 144 227 144 116 107 115 129 135 133 123 109 108 103 60 34 3 354 342 332 326 331 334 330 327 328 323 316 308 305 304 307
121 149 289 248 175 138 114 240 307 131 138 144 152 210 145 119 84 114 127 130 122 118 127 158 163 91 55 357 349 330 311 314 326 329 332 325 321 314 317 314 310 306 304 306
82 84 279 180 80 151 215 10 131 105 115 105 111 110 118 121 128 129 130 125 123 133 167 187 160 91 33 340 331 313 313 323 330 331 332 327 320 320 322 318 315 316 319 318
169 209 254 281 242 309 147 131 142 118 124 132 129 127 128 133 132 141 141 145 152 161 171 169 135 118 21 297 325 324 332 332 330 326 333 328 324 329 346 359 7 3 349 346
83 296 307 338 336 237 173 138 139 132 143 137 129 139 129 130 137 142 149 159 166 163 153 158 145 47 326 332 332 348 339 339 340 338 337 341 348 355 35 8 4 8 356 347
309 279 295 271 275 149 92 98 102 84 105 123 126 128 137 139 152 158 160 170 170 165 163 176 183 253 301 334 343 333 331 336 348 348 342 336 351 332 83 61 37 16 356 339
220 216 174 209 159 136 132 133 133 121 99 95 133 145 134 153 165 162 172 166 169 184 181 186 187 286 321 355 3 337 343 359 337 348 351 345 341 341 119 153 102 45 2 359
242 145 69 117 122 106 132 146 134 132 140 134 119 136 144 145 164 167 170 180 193 198 201 195 238 278 280 314 353 342 327 315 323 327 356 354 353 354 352 350 229 27 4 355
176 120 53 202 177 137 128 113 94 90 92 129 136 132 137 144 146 174 189 205 198 194 206 213 235 257 254 229 254 283 302 306 329 320 322 343 351 354 357 1 353 352 1 349
283 342 178 112 107 112 109 117 124 144 146 134 153 158 163 167 181 199 196 188 177 187 213 215 228 259 244 218 230 252 274 289 307 326 337 340 349 351 358 360 356 345 339 353
69 74 106 137 150 148 132 148 158 172 172 168 170 181 192 190 189 191 188 173 162 209 219 217 230 242 222 212 231 246 256 267 277 316 333 342 351 349 354 360 358 355 352 358
102 88 89 139 175 167 188 184 183 184 175 180 202 181 174 185 185 206 214 207 217 223 223 209 230 229 222 213 221 234 241 254 254 261 275 286 309 326 326 330 343 333 348 338
308 42 199 184 179 179 181 203 205 176 195 208 162 168 181 185 209 209 213 205 219 249 239 230 227 222 227 223 222 230 234 242 239 237 243 252 256 264 284 297 304 322 326 320
23 329 225 193 189 193 198 202 206 208 193 188 156 200 207 213 214 213 190 194 215 230 258 215 226 222 222 229 224 221 233 242 241 234 230 238 254 251 258 264 282 292 299 303
40 25 25 351 154 181 172 108 124 168 217 185 195 206 210 225 215 208 184 212 220 219 242 218 211 216 219 223 235 214 226 240 239 235 228 231 242 252 256 254 258 261 268 277
29 27 41 34 18 3 324 293 241 221 215 190 189 214 220 232 207 185 179 223 246 231 232 229 210 227 213 212 212 211 221 232 229 228 229 232 236 249 253 257 261 258 259 261
46 39 28 14 358 338 347 351 68 14 308 263 247 259 224 237 218 213 222 218 248 222 220 225 225 229 220 214 202 208 217 223 225 224 232 232 230 244 250 253 256 258 256 257
17 5 349 328 331 327 328 341 329 317 289 261 256 226 216 253 206 194 253 232 230 237 233 236 230 225 222 207 208 208 212 217 221 220 224 223 226 238 243 249 252 255 260 258
317 299 289 294 302 316 303 283 297 289 269 273 261 254 235 254 253 233 246 267 250 225 230 235 233 227 222 211 209 210 212 215 219 221 224 220 226 233 239 243 250 253 259 260
269 282 296 308 301 276 269 278 297 284 292 287 278 273 247 220 215 269 217 245 248 237 240 238 227 232 217 212 214 214 213 212 216 216 216 221 229 234 240 236 241 252 257 256
319 300 288 265 253 273 273 257 254 272 260 277 282 266 266 243 230 242 258 252 252 237 233 248 228 213 210 214 213 215 214 215 211 212 216 222 228 236 246 250 245 246 249 254
333 310 333 332 320 289 274 255 250 268 234 223 248 268 256 260 240 237 247 261 255 247 242 247 246 229 227 218 215 219 221 212 204 213 214 215 228 233 239 243 244 245 246 249